Weather in Bolshoy

Russia / Volgograd Oblast     50°13′13″N   43°26′15″E
temp.,
°C
wind,
m/s
gust,
m/s
humid.,
%
clouds,
%
prec.,
mm/h
press.,
hPa
HPBL,
m
3 march, wed
wed300:000wnw51098100 0.5 1009443
03:000nw5998100 0.7 1009387
06:00−1nw4997100 0.3 1009370
09:00−1nnw6991100 0.3 1011612
12:00−1nw6986100 0.1 1012772
15:000nnw588397 0.2 1014936
18:00−3nw6128534 0.1 1016461
21:00−5nw5118818 0.1 1019413
4 march, thu
thu400:00−5wnw49890 0.0 1019261
03:00−4wsw410899 0.0 1018249
06:00−3wsw6148934 0.0 1016460
09:00−1w7128866 0.0 1016860
12:00+2wsw8137783 0.0 1014805
15:00+3wsw8136942 0.0 1012832
18:00+2sw715720 0.0 1011486
21:00+1sw717760 0.0 1010561
5 march, fri
fri500:00+1sw7177928 0.0 1008551
03:00+2sw8178862 0.0 1007652
06:00+2sw81689100 0.0 1007620
09:00+3wsw81496100 0.1 1007660
12:00+3wsw81497100 0.2 1008717
15:00+3w51193100 0.6 1009510
18:00+1wsw3494100 0.1 1011102
21:00+1sw1299100 0.3 101227
6 march, sat
sat600:000e3499100 3.3 1010101
03:00+2ssw4998100 6.3 1008358
06:00−1n6897100 2.2 1008274
09:00−2n7118799 2.4 1010555
12:00−1nnw688199 0.0 1013719
15:00−2nnw697582 0.0 1014754
18:00−4nnw488281 0.0 1016507
21:00−5nnw358190 0.0 1018285
7 march, sun
sun700:00−6nnw347964 0.0 1018217
03:00−7nw237632 0.0 1019162
06:00−7w11780 0.0 101988
09:00−3sw57690 0.0 1019711
12:000wsw8115828 0.0 10181584
15:00+1wsw8125034 0.0 10151472
18:00−1sw6135158 0.0 1014689
21:00−1sw8155476 0.0 1013912